Location: ???????
(55.4362°N, 38.1183°E)
Time: 17:07:35
(UTC+00:00)

Lacrosse 4 Rocket - Pass Details

Date: 17 June 2021
Orbit: 543 x 614 km, 68.0° (Epoch: 29 July)

Event Time Altitude Azimuth Distance (km) Brightness Sun altitude
Rises 21:43:24 0° 318° (NW) 2,781 5.6 -11.1°
Reaches altitude 10° 21:45:55 10° 331° (NNW) 1,868 5.0 -11.1°
Maximum altitude 21:49:31 28° 31° (NNE) 1,080 3.6 -11.0°
Drops below altitude 10° 21:53:04 10° 91° (E) 1,831 4.0 -11.0°
Sets 21:55:30 0° 103° (ESE) 2,715 4.8 -11.0°
